This demonstration page uses our WeatherBlox Daily Observations layout. Learn more.

Left ArrowRight Arrow

Hourly Observations for February 15, 2022

Temp ( °F °C ) Dew Point ( °F °C ) Humidity (%) Winds ( mph kmh ) Pressure ( in mb ) Visibility ( mi km ) Precip ( " mm )
12:53 am 00:53 Cloudy 28 -2.2 21 -6.1 75 75 ENE 7 11 29.79 1009 10 16 0.00 0.00
1:53 am 01:53 Cloudy 28 -2.2 21 -6.1 75 75 ENE 3 6 29.80 1009 10 16 0.00 0.00
2:53 am 02:53 Cloudy 28 -2.2 21 -6.1 75 75 Calm 29.82 1010 10 16 0.00 0.00
3:53 am 03:53 Cloudy 27 -2.8 21 -6.1 78 78 SW 3 6 29.82 1010 10 16 0.00 0.00
4:53 am 04:53 Cloudy 27 -2.8 22 -5.6 81 81 SW 6 9 29.84 1011 10 16 0.00 0.00
5:05 am 05:05 Cloudy 27 -2.8 22 -5.6 81 81 SW 6 9 29.90 1013 10 16 0.00 0.00
5:53 am 05:53 Cloudy 28 -2.2 23 -5 81 81 WSW 8 13 29.86 1011 10 16 0.00 0.00
6:17 am 06:17 Cloudy 28 -2.2 23 -5 81 81 W 9 15 29.92 1013 10 16 0.00 0.00
6:34 am 06:34 Cloudy 29 -1.7 24 -4.4 82 82 W 9 15 29.92 1013 10 16 0.00 0.00
6:48 am 06:48 Cloudy 28 -2 25 -4 86 86 W 13 20 29.92 1013 10 16 0.00 0.00
6:53 am 06:53 Cloudy 29 -1.7 25 -3.9 85 85 W 12 19 29.89 1012 10 16 0.00 0.00
7:53 am 07:53 Cloudy 28 -2.2 24 -4.4 85 85 WNW 10 17 29.91 1013 10 16 0.00 0.00
8:15 am 08:15 Cloudy 28 -2.2 24 -4.4 85 85 WNW 13 20 29.97 1015 10 16 0.00 0.00
8:53 am 08:53 Cloudy 27 -2.8 22 -5.6 81 81 NW 16 26 29.95 1014 10 16 0.00 0.00
9:00 am 09:00 Cloudy 28 -2.2 22 -5.6 78 78 NW 13 20 29.99 1016 10 16 0.00 0.00
9:20 am 09:20 Cloudy 28 -2 21 -6 74 74 WNW 16 26 29.99 1016 10 16 0.00 0.00
9:53 am 09:53 Cloudy 28 -2.2 22 -5.6 78 78 WNW 18 30 29.96 1015 10 16 0.00 0.00
10:53 am 10:53 Cloudy 29 -1.7 23 -5 78 78 NW 15 24 29.98 1015 10 16 0.00 0.00
11:53 am 11:53 Mostly Cloudy 32 0 23 -5 69 69 WNW 13 20 29.98 1015 10 16 0.00 0.00
12:53 pm 12:53 Cloudy 31 -0.6 23 -5 72 72 NW 15 24 29.98 1015 10 16 0.00 0.00
1:53 pm 13:53 Cloudy 31 -0.6 23 -5 72 72 WNW 12 19 29.96 1015 10 16 0.00 0.00
2:53 pm 14:53 Mostly Cloudy 32 0 22 -5.6 66 66 NW 16 26 29.96 1015 10 16 0.00 0.00
3:08 pm 15:08 Cloudy 32 0 22 -5.6 66 66 NW 16 26 29.98 1015 10 16 0.00 0.00
3:31 pm 15:31 Cloudy 31 -0.6 22 -5.6 69 69 NW 14 22 30.00 1016 10 16 0.00 0.00
3:53 pm 15:53 Cloudy 30 -1.1 22 -5.6 72 72 WNW 14 22 29.97 1015 10 16 0.00 0.00
4:53 pm 16:53 Cloudy 30 -1.1 22 -5.6 72 72 WNW 13 20 29.98 1015 10 16 0.00 0.00
5:53 pm 17:53 Cloudy 30 -1.1 22 -5.6 72 72 WNW 6 9 29.97 1015 10 16 0.00 0.00
6:39 pm 18:39 Cloudy 29 -1.7 22 -5.6 75 75 NNW 5 7 30.00 1016 10 16 0.00 0.00
6:53 pm 18:53 Cloudy 30 -1.1 22 -5.6 72 72 Calm 29.96 1015 10 16 0.00 0.00
7:53 pm 19:53 Cloudy 28 -2.2 24 -4.4 85 85 SSW 5 7 29.95 1014 10 16 0.00 0.00
8:53 pm 20:53 Cloudy 27 -2.8 25 -3.9 92 92 Calm 29.95 1014 8 13 0.00 0.00
9:53 pm 21:53 Cloudy with Mist and Fog 28 -2.2 25 -3.9 88 88 ENE 3 6 29.95 1014 6 10 0.00 0.00
10:28 pm 22:28 Cloudy with Mist and Fog 28 -2 25 -4 86 86 E 5 7 29.97 1015 6 10 0.00 0.00
10:48 pm 22:48 Cloudy with Light Snow 28 -2 25 -4 86 86 E 7 11 29.97 1015 3 4 0.00 0.00
10:49 pm 22:49 Cloudy with Light Snow 28 -2.2 25 -3.9 88 88 E 6 9 29.93 1014 3 4 0.00 0.00
10:57 pm 22:57 Cloudy with Light Snow 28 -2.2 25 -3.9 88 88 E 7 11 29.97 1015 2 3 0.00 0.00
11:04 pm 23:04 Cloudy with Light Snow 27 -2.8 25 -3.9 92 92 E 8 13 29.98 1015 2 3 0.01 0.25
11:11 pm 23:11 Cloudy with Light Snow 27 -2.8 25 -3.9 92 92 E 10 17 29.97 1015 2 3 0.01 0.25
11:18 pm 23:18 Cloudy with Light Snow 27 -2.8 25 -3.9 92 92 E 12 19 29.97 1015 2 3 0.01 0.25
11:44 pm 23:44 Cloudy with Light Snow 27 -2.8 24 -4.4 89 89 E 12 19 29.97 1015 2 3 0.01 0.25
11:53 pm 23:53 Cloudy with Light Snow 27 -2.8 24 -4.4 89 89 E 10 17 29.92 1013 3 4 0.02 0.51

Powered by AerisWeather